Location: Unspecified
(50.7693°N, 0.0000°E)
Time: 06:30:04
(UTC+00:00)

Transit 2A - Pass Details

Date: 30 June 2019
Orbit: 594 x 965 km, 66.7° (Epoch: 15 July)

Event Time Altitude Azimuth Distance (km) Brightness Sun altitude
Rises 08:01:27 0° 316° (NW) 3,413 9.0 36.2°
Reaches altitude 10° 08:04:25 10° 304° (NW) 2,406 8.2 36.7°
Maximum altitude 08:08:46 24° 251° (WSW) 1,524 7.4 37.4°
Drops below altitude 10° 08:12:46 10° 198° (SSW) 2,193 8.4 38.0°
Sets 08:15:21 0° 185° (S) 3,045 9.2 38.4°
